Find Global-32

NORAD ID: 64231 Int'l Des: 2025-118 Owner: BSKG Country: US operational
LEOCIRCULAR

リアルタイム位置

3D地球を読み込み中...

Global-32について

説明を読み込み中...

次回通過

Passes for default location (London). Set your location on the main map for personalized predictions.

高度履歴

Loading altitude history...

軌道要素

1 64231U 25118B 26104.51579862 .00007989 00000-0 21446-3 0 9992
2 64231 58.9955 29.8067 0008307 350.0898 10.0013 15.38830725 48449
Epoch: Apr 14, 2026 • Age: 12 hours

現在のステータス

高度 458.6 km
速度 7.63 km/s
衛星直下点 -12.02°S, 9.96°E
打ち上げ日 Jun 2, 2025
運用期間 0.8 years
タイプ earth observation

技術仕様

分類 Payload
質量 138.00 kg
乾燥質量 134.00 kg
総質量 138.00 kg
長さ 1.50 m
直径 1.00 m
スパン 3.00 m
形状 Box+2 pan
製造者 LEOSTL
バスタイプ BSky
フェーズステータス In Orbit
所有者/国 BSKG/US

Most Searched